Participated 3 times
Between 1959 and 1962
Dino Bruni, Italy
Tour de France 2026 starts from Barcelona, Spain in

Stats and Facts from
Tour de France.

2026   2025   2024   2023  2022  2021  2020  2019   2018  2017   2016   2015  2014  2013   2012   2011  2010   2009   2008   2007   2006   2005   2004   2003   2002   2001   2000   1999   1998   1997  1996   1995   1994   1993   1992  1991   1990   1989   1988   1987   1986   1985   1984   1983  1982  1981   1980   1979  1978  1977   1976  1975  1974  1973   1972   1971   1970  1969   1968   1967   1966   1965  1964  1963   1962   1961   1960   1959   1958   1957  1956   1955   1954   1953   1952  1951  1950  1949   1948  1947  1939   1938   1937   1936   1935   1934   1933  1932   1931   1930  1929   1928   1927   1926  1925  1924  1923   1922   1921   1920   1919  1914   1913   1912   1911   1910  1909   1908   1907   1906  1905  1904   1903 

Tourstats
Sitemap

After stage 21 - 2025:
 16451 starters.
  5463 different riders.
  689 teams.
  2398 stages.
  470 restdays.
  466506.50 km.
  5925 abandoned riders.

Click map for 1991 route.
Facts from Tour de France 1991
  |   Stages.  |   Stage winners.  |   Days in jerseys.  |   Teams.  |   All riders.  |   All riders by age.  |   All riders from.  |  

  |   Rookies.  |   Withdrawls.  |   Average speed.  |   GC.  |   Polka  |   Green  |   White  |   Summits. (In tour)  |   Miscellaneous.  |  

Stage 17 on July 23rd. 1991
Pick a stage:  Pro  1  2  3  4  5  6  7  8  9  10  11  12  13  14  15  16  17  18  19  20  21  22  

After stage 17:    Miguel Indurain  
  GapAlpe-d´Huez | Dist: 125.00km. | Winner: Gianni Bugno

Podium
3  Rampe du Motty Pello Ruiz Cabestanyafter35.00 km.

4  Côte de Egats Thierry Bourguignonafter53.00 km.

3  Côte de la Mure Thierry Bourguignonafter61.00 km.

2  Col d'Ornon Pello Ruiz Cabestanyafter96.00 km.

HC  Alpe d'Huez Gianni Bugnoafter125.00 km.


Average speed for all riders in stage:  34,924 km./hr.

1
 Gianni Bugno  Gatorade-Chateau d'Ax03h 25' 48"=36,443  km/h

114  Davide Cassani  Ariostea03h 25' 48"=36,443  km/h

115  Etienne De Wilde  Histor-Sigma03h 25' 48"=36,443  km/h

2
 Miguel Indurain  Banesto03h 25' 49"+  00:00:01 =36,440  km/h

3
 Luc Leblanc  Castorama03h 25' 50"+  00:00:02 =36,437  km/h

4  Jean-François Bernard  Banesto03h 26' 23"+  00:00:35 =36,340  km/h

5  Steven Rooks  Buckler03h 26' 31"+  00:00:43 =36,317  km/h

6  Claudio Chiappucci  Carrera Jeans03h 26' 31"+  00:00:43 =36,317  km/h

7  Thierry Claveyrolat  R.M.O.-Mavic-Liberia03h 26' 31"+  00:00:43 =36,317  km/h

8  Pedro Delgado  Banesto03h 26' 33"+  00:00:45 =36,311  km/h

9  Laurent Fignon  Castorama03h 27' 00"+  00:01:12 =36,232  km/h

10  Álvaro Mejía  Ryalcao-Postobon03h 27' 01"+  00:01:13 =36,229  km/h

11  Uwe Ampler  Histor-Sigma03h 27' 46"+  00:01:58 =36,098  km/h

12  Charly Mottet  R.M.O.-Mavic-Liberia03h 27' 46"+  00:01:58 =36,098  km/h

13  Gert-Jan Theunisse  TVM-Sanyo03h 27' 46"+  00:01:58 =36,098  km/h

14  Greg LeMond  Z03h 27' 46"+  00:01:58 =36,098  km/h

15  Gérard Rué  Helvetia03h 27' 48"+  00:02:00 =36,092  km/h

16  Andy Hampsten  Motorola03h 27' 49"+  00:02:01 =36,090  km/h

17  Ronan Pensec  Amaya Seguros03h 27' 51"+  00:02:03 =36,084  km/h

18  Abelardo Rondón  Banesto03h 28' 12"+  00:02:24 =36,023  km/h

19  Pascal Richard  Helvetia03h 28' 20"+  00:02:32 =36,000  km/h

20  Reynel Montoya  Ryalcao-Postobon03h 28' 20"+  00:02:32 =36,000  km/h

21  Éric Boyer  Z03h 28' 38"+  00:02:50 =35,948  km/h

22  Éric Caritoux  R.M.O.-Mavic-Liberia03h 28' 42"+  00:02:54 =35,937  km/h

23  Denis Roux  Toshiba03h 28' 43"+  00:02:55 =35,934  km/h

24  Alberto Leanizbarrutia  Clas-Cajastur03h 28' 43"+  00:02:55 =35,934  km/h

25  Javier Murguialday  Amaya Seguros03h 29' 07"+  00:03:19 =35,865  km/h

26  Eduardo Chozas  O.N.C.E.03h 29' 07"+  00:03:19 =35,865  km/h

27  Johan Bruyneel  Lotto-Superclub-MBK03h 29' 07"+  00:03:19 =35,865  km/h

28  Rolf Gölz  Ariostea03h 29' 15"+  00:03:27 =35,842  km/h

29  Marino Lejarreta  O.N.C.E.03h 29' 16"+  00:03:28 =35,839  km/h

30  Alberto Camargo  Ryalcao-Postobon03h 29' 16"+  00:03:28 =35,839  km/h

31  Laurent Pillon  Tonton Tapis-Corona03h 29' 29"+  00:03:41 =35,802  km/h

32  Roberto Conti  Ariostea03h 29' 29"+  00:03:41 =35,802  km/h

33  Thierry Bourguignon  Toshiba03h 29' 55"+  00:04:07 =35,728  km/h

34  Gerrit De Vries  Buckler03h 29' 55"+  00:04:07 =35,728  km/h

35  Didier Virvaleix  Histor-Sigma03h 29' 55"+  00:04:07 =35,728  km/h

36  Francisco Mauleón  Clas-Cajastur03h 29' 55"+  00:04:07 =35,728  km/h

37  Anselmo Fuerte  O.N.C.E.03h 29' 55"+  00:04:07 =35,728  km/h

38  Vladimir Pulnikov  Carrera Jeans03h 29' 55"+  00:04:07 =35,728  km/h

39  Luis Herrera  Ryalcao-Postobon03h 29' 55"+  00:04:07 =35,728  km/h

40  Mauro Ribeiro  R.M.O.-Mavic-Liberia03h 30' 33"+  00:04:45 =35,621  km/h

41  Jerôme Simon  Z03h 30' 33"+  00:04:45 =35,621  km/h

42  Jean-Claude Bagot  Castorama03h 30' 35"+  00:04:47 =35,615  km/h

43  Jesús Montoya  Amaya Seguros03h 30' 36"+  00:04:48 =35,613  km/h

44  Dimitri Konychev  TVM-Sanyo03h 30' 40"+  00:04:52 =35,601  km/h

45  Óscar Vargas  Ryalcao-Postobon03h 30' 40"+  00:04:52 =35,601  km/h

46  Gerardo Moncada  Ryalcao-Postobon03h 30' 40"+  00:04:52 =35,601  km/h

47  Viatcheslav Ekimov  Panasonic-Sportlife03h 31' 07"+  00:05:19 =35,525  km/h

48  Patrice Esnault  Amaya Seguros03h 31' 10"+  00:05:22 =35,517  km/h

49  Alessandro Giannelli  Carrera Jeans03h 31' 23"+  00:05:35 =35,481  km/h

50  Jean-Claude Colotti  Tonton Tapis-Corona03h 31' 24"+  00:05:36 =35,478  km/h

51  Frédéric Vichot  Castorama03h 31' 24"+  00:05:36 =35,478  km/h

52  Iñaki Gastón  Clas-Cajastur03h 31' 38"+  00:05:50 =35,439  km/h

53  Dominique Arnould  Castorama03h 31' 41"+  00:05:53 =35,430  km/h

54  Marco Giovannetti  Gatorade-Chateau d'Ax03h 31' 41"+  00:05:53 =35,430  km/h

55  Guy Nulens  Panasonic-Sportlife03h 31' 50"+  00:06:02 =35,405  km/h

56  Maurizio Fondriest  Panasonic-Sportlife03h 31' 51"+  00:06:03 =35,402  km/h

57  Stephen Hodge  O.N.C.E.03h 32' 30"+  00:06:42 =35,294  km/h

58  Philippe Louviot  Toshiba03h 32' 41"+  00:06:53 =35,264  km/h

59  Pascal Lino  R.M.O.-Mavic-Liberia03h 32' 41"+  00:06:53 =35,264  km/h

60  Dimitri Zhdanov  Panasonic-Sportlife03h 32' 43"+  00:06:55 =35,258  km/h

61  Gilles Delion  Helvetia03h 32' 55"+  00:07:07 =35,225  km/h

62  Phil Anderson  Motorola03h 33' 27"+  00:07:39 =35,137  km/h

63  Arsenio Chaparro  Ryalcao-Postobon03h 33' 29"+  00:07:41 =35,132  km/h

64  Pascal Simon  Castorama03h 33' 29"+  00:07:41 =35,132  km/h

65  Olaf Lurvik  Toshiba03h 33' 42"+  00:07:54 =35,096  km/h

66  Pello Ruiz Cabestany  Clas-Cajastur03h 33' 45"+  00:07:57 =35,088  km/h

67  Marc van Orsouw  Panasonic-Sportlife03h 33' 48"+  00:08:00 =35,080  km/h

68  Philippe Casado  Z03h 34' 00"+  00:08:12 =35,047  km/h

69  Patrick Jacobs  Tonton Tapis-Corona03h 34' 07"+  00:08:19 =35,028  km/h

70  Roland Le Clerc  Amaya Seguros03h 34' 07"+  00:08:19 =35,028  km/h

71  Fabrice Philipot  Banesto03h 34' 13"+  00:08:25 =35,011  km/h

72  Francisco Espinosa  Clas-Cajastur03h 34' 41"+  00:08:53 =34,935  km/h

73  Andreas Kappes  Histor-Sigma03h 34' 41"+  00:08:53 =34,935  km/h

74  Henry Cárdenas  Ryalcao-Postobon03h 34' 41"+  00:08:53 =34,935  km/h

75  Robert Millar  Z03h 34' 41"+  00:08:53 =34,935  km/h

76  Moreno Argentin  Ariostea03h 34' 58"+  00:09:10 =34,889  km/h

77  Bruno Cenghialta  Ariostea03h 34' 58"+  00:09:10 =34,889  km/h

78  Enrico Zaina  Carrera Jeans03h 34' 58"+  00:09:10 =34,889  km/h

79  Eric Van Lancker  Panasonic-Sportlife03h 34' 58"+  00:09:10 =34,889  km/h

80  Gilbert Duclos-Lassalle  Z03h 34' 58"+  00:09:10 =34,889  km/h

81  Marc Sergeant  Panasonic-Sportlife03h 34' 58"+  00:09:10 =34,889  km/h

82  Bruno Cornillet  Z03h 34' 58"+  00:09:10 =34,889  km/h

83  Frank Van Den Abeele  Lotto-Superclub-MBK03h 34' 58"+  00:09:10 =34,889  km/h

84  Dominik Krieger  Helvetia03h 35' 09"+  00:09:21 =34,859  km/h

85  Olaf Ludwig  Panasonic-Sportlife03h 35' 19"+  00:09:31 =34,832  km/h

86  Patrick Verschueren  Lotto-Superclub-MBK03h 35' 42"+  00:09:54 =34,771  km/h

87  Mauro Gianetti  Helvetia03h 35' 43"+  00:09:55 =34,768  km/h

88  Guido Winterberg  Helvetia03h 35' 43"+  00:09:55 =34,768  km/h

89  Erich Mächler  Carrera Jeans03h 35' 43"+  00:09:55 =34,768  km/h

90  Peter Stevenhaagen  Helvetia03h 35' 43"+  00:09:55 =34,768  km/h

91  Guido Bontempi  Carrera Jeans03h 35' 43"+  00:09:55 =34,768  km/h

92  Bjarne Riis  Castorama03h 36' 09"+  00:10:21 =34,698  km/h

93  Michel Dernies  Weinmann-Eddy Merckx03h 36' 16"+  00:10:28 =34,679  km/h

94  Werner Stutz  Weinmann-Eddy Merckx03h 36' 27"+  00:10:39 =34,650  km/h

95  Henri Abadie  Toshiba03h 36' 58"+  00:11:10 =34,568  km/h

96  Roberto Gusmeroli  Gatorade-Chateau d'Ax03h 36' 59"+  00:11:11 =34,565  km/h

97  Alberto Elli  Ariostea03h 36' 59"+  00:11:11 =34,565  km/h

98  Dominique Arnaud  Banesto03h 37' 14"+  00:11:26 =34,525  km/h

99  Thierry Laurent  R.M.O.-Mavic-Liberia03h 37' 15"+  00:11:27 =34,522  km/h

100  Marc Madiot  R.M.O.-Mavic-Liberia03h 37' 17"+  00:11:29 =34,517  km/h

101  Rolf Järmann  Weinmann-Eddy Merckx03h 37' 22"+  00:11:34 =34,504  km/h

102  Valerio Tebaldi  Gatorade-Chateau d'Ax03h 37' 24"+  00:11:36 =34,499  km/h

103  Manuel Dominguez  Clas-Cajastur03h 37' 24"+  00:11:36 =34,499  km/h

104  Enrique Guerrikagoitia  Amaya Seguros03h 37' 24"+  00:11:36 =34,499  km/h

105  Herminio Diaz Zabala  O.N.C.E.03h 37' 24"+  00:11:36 =34,499  km/h

106  Melchor Mauri  O.N.C.E.03h 37' 24"+  00:11:36 =34,499  km/h

107  Johnny Weltz  O.N.C.E.03h 37' 24"+  00:11:36 =34,499  km/h

108  Carlos Jaramillo  Ryalcao-Postobon03h 37' 24"+  00:11:36 =34,499  km/h

109  Christophe Lavainne  Castorama03h 37' 24"+  00:11:36 =34,499  km/h

110  Miguel Angel Martinez  O.N.C.E.03h 37' 24"+  00:11:36 =34,499  km/h

111  Wilfried Peeters  Histor-Sigma03h 37' 24"+  00:11:36 =34,499  km/h

112  Urs Zimmermann  Motorola03h 37' 24"+  00:11:36 =34,499  km/h

113  Michel Vermote  R.M.O.-Mavic-Liberia03h 37' 24"+  00:11:36 =34,499  km/h

116  Thierry Marie  Castorama03h 37' 32"+  00:11:44 =34,477  km/h

117  Giancarlo Perini  Carrera Jeans03h 37' 55"+  00:12:07 =34,417  km/h

118  Camillo Passera  Gatorade-Chateau d'Ax03h 37' 55"+  00:12:07 =34,417  km/h

119  Rik  Van Slycke  Lotto-Superclub-MBK03h 37' 55"+  00:12:07 =34,417  km/h

120  Marino Alonso  Banesto03h 38' 10"+  00:12:22 =34,377  km/h

121  Per Pedersen  Amaya Seguros03h 38' 22"+  00:12:34 =34,346  km/h

122  Dag Otto Lauritzen  Motorola03h 38' 36"+  00:12:48 =34,309  km/h

123  Vasily Zhdanov  TVM-Sanyo03h 38' 36"+  00:12:48 =34,309  km/h

124  Thomas Barth  TVM-Sanyo03h 38' 36"+  00:12:48 =34,309  km/h

125  Jelle Nijdam  Buckler03h 38' 48"+  00:13:00 =34,278  km/h

126  Edwig Van Hooydonck  Buckler03h 38' 48"+  00:13:00 =34,278  km/h

127  Hendrik Redant  Lotto-Superclub-MBK03h 38' 53"+  00:13:05 =34,265  km/h

128  Gerrit Solleveld  Buckler03h 39' 22"+  00:13:34 =34,189  km/h

129  Sergei Uslamin  TVM-Sanyo03h 39' 27"+  00:13:39 =34,176  km/h

130  Pascal Lance  Toshiba03h 39' 31"+  00:13:43 =34,166  km/h

131  Laurent Jalabert  Toshiba03h 39' 31"+  00:13:43 =34,166  km/h

132  Nico  Emonds  Clas-Cajastur03h 39' 35"+  00:13:47 =34,156  km/h

133  Javier Duch  Clas-Cajastur03h 39' 35"+  00:13:47 =34,156  km/h

134  Jan Schur  Gatorade-Chateau d'Ax03h 39' 35"+  00:13:47 =34,156  km/h

135  Javier Lukin  Banesto03h 39' 40"+  00:13:52 =34,143  km/h

136  Brian Holm  Histor-Sigma03h 39' 40"+  00:13:52 =34,143  km/h

137  Djamolidine Abduzhaparov  Carrera Jeans03h 39' 42"+  00:13:54 =34,137  km/h

138  Rob Harmeling  TVM-Sanyo03h 39' 55"+  00:14:07 =34,104  km/h

139  Peter De Clercq  Lotto-Superclub-MBK03h 40' 07"+  00:14:19 =34,073  km/h

140  Laurence Roche  Tonton Tapis-Corona03h 40' 10"+  00:14:22 =34,065  km/h

141  Jan Siemons  TVM-Sanyo03h 40' 14"+  00:14:26 =34,055  km/h

142  Jesus Rodriguez Magro  Banesto03h 40' 27"+  00:14:39 =34,021  km/h

143  Andrew Bishop  Motorola03h 40' 41"+  00:14:53 =33,985  km/h

144  Jure Pavlič  Carrera Jeans03h 40' 41"+  00:14:53 =33,985  km/h

145  Frans Maassen  Buckler03h 40' 46"+  00:14:58 =33,973  km/h

146  Guiseppe Calcaterra  Gatorade-Chateau d'Ax03h 41' 11"+  00:15:23 =33,909  km/h

147  Mauro-Antonio Santaromita  Gatorade-Chateau d'Ax03h 41' 11"+  00:15:23 =33,909  km/h

148  Stefano Zanatta  Gatorade-Chateau d'Ax03h 41' 23"+  00:15:35 =33,878  km/h

149  Steve Bauer  Motorola03h 41' 23"+  00:15:35 =33,878  km/h

150  Ron Kiefel  Motorola03h 41' 23"+  00:15:35 =33,878  km/h

151  François Lemarchand  Z03h 41' 23"+  00:15:35 =33,878  km/h

152  Francis Moreau  Tonton Tapis-Corona03h 41' 30"+  00:15:42 =33,860  km/h

153  Rudy Verdonck  Weinmann-Eddy Merckx03h 42' 29"+  00:16:41 =33,710  km/h

154  Eric Vanderaerden  Buckler03h 42' 31"+  00:16:43 =33,705  km/h

155  José-Manuel Oliveira  Clas-Cajastur03h 42' 34"+  00:16:46 =33,698  km/h

156  Christian Chaubet  Toshiba03h 43' 08"+  00:17:20 =33,612  km/h

157  Henri Manders  Helvetia03h 43' 08"+  00:17:20 =33,612  km/h

158  Eddy Schurer  TVM-Sanyo03h 43' 14"+  00:17:26 =33,597  km/h

159  Atle Kvå lsvoll  Z03h 43' 31"+  00:17:43 =33,555  km/h

160  Ludwig Willems  Weinmann-Eddy Merckx03h 43' 39"+  00:17:51 =33,535  km/h

161  Thomas Wegmüller  Weinmann-Eddy Merckx03h 44' 22"+  00:18:34 =33,427  km/h

162  Alfred Achermann  Weinmann-Eddy Merckx03h 44' 45"+  00:18:57 =33,370  km/h

163  Toine  Poels  Buckler03h 44' 54"+  00:19:06 =33,348  km/h

164  Wiebren Veenstra  Buckler03h 47' 30"+  00:21:42 =32,967  km/h


Withdrawls: 6
 RiderTeamReason
128   Marco Lietti AriosteaDid not start
65   Jan Nevens Lotto-Superclub-MBKDid not finish
89   Fernando Quevedo Amaya SegurosDid not finish
137   Yvon Madiot R.M.O.-Mavic-LiberiaDid not finish
177   Remig Stumpf Histor-SigmaDid not finish
55   Camillo Passera Gatorade-Chateau d'AxExceeded time limit
Todays birthdays.

1888 • Giuseppe Contesini
1911 • Edmond Pages
1935 • Eddy Pauwels
1940 • Julien Haelterman
1958 • Luc Colijn
1962 • Jean-François Bernard
1984 • Yann Huguet
1993 • Owain Doull

 

Optimized for Chrome - Edge
and Opera browsers.